Weather History for Chillicothe, MO

Change the Weather History Date:

Wednesday, November 14, 2012

  Actual Average (KIRK) Record (KIRK)
Temperature  
Mean Temperature 44 °F 41 °F  
Max Temperature 55 °F 51 °F 76 °F (1964)
Min Temperature 34 °F 32 °F 4 °F (1940)
Degree Days  
Heating Degree Days 20 24  
Month to date heating degree days 289  
Since 1 July heating degree days 778  
Cooling Degree Days 0 0  
Month to date cooling degree days 0  
Year to date cooling degree days 939  
Moisture  
Dew Point 30 °F    
Average Humidity 59    
Maximum Humidity 89    
Minimum Humidity 32    
Precipitation  
Precipitation 0.00 in 0.08 in 0.71 in (1931)
Month to date precipitation 1.50  
Year to date precipitation 36.34  
Sea Level Pressure  
Sea Level Pressure 30.38 in    
Wind  
Wind Speed 2 mph (South)    
Max Wind Speed 10 mph    
Max Gust Speed -    
T = Trace of Precipitation, MM = Missing Value Source: NWS Daily Summary

Daily Weather History Graph

Daily Weather History Graph

Search for Another Location

Airport:

Trip Planner

Search our weather history database for the weather conditions in past years. The results will help you decide how hot, cold, wet, or windy it might be!

Date:

Astronomy

Nov. 14, 2012 Rise Set
Actual Time 6:58 AM CST 4:58 PM CST
Civil Twilight 6:29 AM CST 5:27 PM CST
Nautical Twilight 5:56 AM CST 6:00 PM CST
Astronomical Twilight 5:25 AM CST 6:32 PM CST
Moon 7:48 AM CST (11/14) 5:48 PM CST (11/14)
Length of Visible Light 10h 58m
Length of Day
10h 00m
New Moon, 1% of the Moon is Illuminated
Nov 14
New Moon
Nov 20
First Quarter
Nov 28
Full
Dec 6
Last Quarter
Dec 13
New

Hourly Weather History & Observations

Time (CST) Temp. Windchill Dew Point Humidity Pressure Visibility Wind Dir Wind Speed Gust Speed Precip Events Conditions
12:52 AM 41.0 °F - 35.1 °F 79% 30.41 in - Calm Calm - N/A   Unknown
1:52 AM 41.0 °F - 34.0 °F 76% 30.41 in - Calm Calm - N/A   Unknown
2:52 AM 42.1 °F - 33.1 °F 70% 30.42 in - Calm Calm - N/A   Unknown
3:52 AM 41.0 °F 39.0 °F 33.1 °F 73% 30.41 in - South 3.5 mph - N/A   Unknown
4:52 AM 37.9 °F - 33.1 °F 83% 30.42 in - Calm Calm - N/A   Unknown
5:52 AM 36.0 °F - 30.9 °F 82% 30.43 in - Calm Calm - N/A   Unknown
6:52 AM 34.0 °F - 28.9 °F 82% 30.44 in - Calm Calm - N/A   Unknown
7:52 AM 35.1 °F - 32.0 °F 89% 30.45 in - Calm Calm - N/A   Unknown
8:52 AM 43.0 °F 40.3 °F 30.9 °F 62% 30.45 in - SE 4.6 mph - N/A   Unknown
9:52 AM 46.9 °F - 30.9 °F 54% 30.45 in - South 5.8 mph - N/A   Unknown
10:52 AM 50.0 °F - 33.1 °F 52% 30.43 in - South 6.9 mph - N/A   Unknown
11:52 AM 54.0 °F - 32.0 °F 43% 30.40 in - South 8.1 mph - N/A   Unknown
12:52 PM 55.9 °F - 28.9 °F 36% 30.37 in - SSW 10.4 mph - N/A   Unknown
1:52 PM 55.9 °F - 26.1 °F 32% 30.35 in - SSW 8.1 mph - N/A   Unknown
2:52 PM 55.9 °F - 28.0 °F 34% 30.34 in - South 9.2 mph - N/A   Unknown
3:52 PM 55.0 °F - 26.1 °F 33% 30.33 in - South 6.9 mph - N/A   Unknown
4:52 PM 51.1 °F - 26.1 °F 38% 30.33 in - South 4.6 mph - N/A   Unknown
5:52 PM 43.0 °F - 28.0 °F 56% 30.33 in - Calm Calm - N/A   Unknown
6:52 PM 39.0 °F - 28.9 °F 67% 30.35 in - Calm Calm - N/A   Unknown
7:52 PM 39.9 °F 37.8 °F 28.9 °F 65% 30.34 in - South 3.5 mph - N/A   Unknown
8:52 PM 39.9 °F - 27.0 °F 60% 30.34 in - Calm Calm - N/A   Unknown
9:52 PM 41.0 °F 39.0 °F 27.0 °F 57% 30.33 in - South 3.5 mph - N/A   Unknown
10:52 PM 43.0 °F 39.5 °F 27.0 °F 53% 30.32 in - SSE 5.8 mph - N/A   Unknown
11:52 PM 43.0 °F 40.3 °F 26.1 °F 51% 30.32 in - SSE 4.6 mph - N/A   Unknown